Regional Weather Roundup
Issued by NWS

Home | Current Version | Previous Version | Graphics & Text | Print | Product List | Glossary On
Versions: 1 2 3 4 5 6 7 8 9 10 11 12 13 14 15 16 17 18 19 20 21 22 23 24 25 26 27 28 29 30 31 32 33 34 35 36 37 38 39 40 41 42 43 44 45 46 47 48 49 50
000
ASUS44 KMEG 011510
RWRTN
TENNESSEE HOURLY STATE WEATHER ROUNDUP
NATIONAL WEATHER SERVICE MEMPHIS TN
1000 AM CDT WED OCT 01 2014

TNZ002-004-019-021-049-052-054-088>092-011600-
WEST TENNESSEE

CITY           SKY/WX    TMP DP  RH WIND       PRES   REMARKS
MEMPHIS INTL   MOSUNNY   81  65  58 S9G17     29.94S
NWS MEMPHIS      N/A     79 N/A N/A MISG        N/A
JACKSON        SUNNY     78  64  61 S5        29.96R
DYERSBURG      SUNNY     75  57  53 S5        29.96S
UNION CITY     MOSUNNY   75  63  64 S5        29.95R
PARIS          SUNNY     77  61  57 S3        29.98R
HUNTINGDON     SUNNY     75  61  62 S5        29.97R
LEXINGTON      SUNNY     73  63  68 S3        29.97S
SAVANNAH       SUNNY     79  64  61 SE5       29.98S
$$

TNZ008-025-027-028-033-062-065-066-011600-
NORTH MIDDLE TENNESSEE

CITY           SKY/WX    TMP DP  RH WIND       PRES   REMARKS
NASHVILLE      PTSUNNY   75  58  55 S3        30.00S
PORTLAND       SUNNY     73  57  56 SE6       29.99S
CLARKSVILLE    MOSUNNY   72  57  59 CALM      29.98S
LEBANON        MOSUNNY   69  57  65 CALM      29.99S
SMYRNA         MOSUNNY   72  59  63 CALM      30.01S
MURFREESBORO   MOSUNNY   72  57  58 SE3       30.00S
COOKEVILLE     SUNNY     73  63  68 CALM      30.03S
GALLATIN       MOSUNNY   68  61  78 CALM      30.02R
CROSSVILLE     PTSUNNY   73  60  63 S3        30.07R
$$

TNZ061-075-076-078-094-096-097-011600-
SOUTH MIDDLE TENNESSEE

CITY           SKY/WX    TMP DP  RH WIND       PRES   REMARKS
LEWISBURG      CLOUDY    74  62  66 CALM      30.00S
FAYETTEVILLE   SUNNY     75  61  60 S6        30.02S
TULLAHOMA      SUNNY     72  61  68 S3        30.04R
WINCHESTER     SUNNY     79  64  61 CALM      30.02S
MCMINNVILLE    SUNNY     70  64  83 CALM      30.03S
COLUMBIA       MOSUNNY   73  70  88 CALM      29.99S
SHELBYVILLE    MOSUNNY   75  63  64 VRB3      30.02S
$$

TNZ017-018-042-046-047-011600-
NORTHEAST TENNESSEE

CITY           SKY/WX    TMP DP  RH WIND       PRES   REMARKS
TRI CITIES     MOSUNNY   67  56  67 CALM      30.08R
ELIZABETHTON   SUNNY     66  55  68 SE5       30.07F
$$

TNZ012-013-036-069-073-074-011600-
CENTRAL EAST TENNESSEE

CITY           SKY/WX    TMP DP  RH WIND       PRES   REMARKS
KNOXVILLE      PTSUNNY   71  60  68 CALM      30.04R
OAK RIDGE      MOSUNNY   64  60  87 E3        30.07R
GATLINBURG     SUNNY     70  55  60 CALM      30.04S
MORRISTOWN     SUNNY     70  57  64 CALM      30.07R
$$

TNZ083-085-099-011600-
SOUTHEAST TENNESSEE

CITY           SKY/WX    TMP DP  RH WIND       PRES   REMARKS
CHATTANOOGA    PTSUNNY   71  62  73 CALM      30.04R
$$

SKY/WX REPORTED AS FAIR MEANS FEW OR NO CLOUDS BELOW
12 THOUSAND FEET.



USA.gov is the U.S. government's official web portal to all federal, state and local government web resources and services.